Showing default

FLYING LAPTOP, 42831

Orbit data source: Space-Track

FLYING LAPTOP, 42831 is a payload satellite owned by IRS Stuttgart (DE) in SSO that was launched on Fri, 14 Jul 2017 UTC via a SOYUZ-2-1A launch vehicle from the Tyuratam Missile And Space Complex (TTMTR). Payload-class satellites include a variety of spacecraft equipped with specific instruments for various scientific and technological missions. These include communications satellites like Starlink; space stations such as the ISS; scientific satellites like the Hubble; Earth observation satellites from companies like Planet Labs, Umbra, and HawkEye 360; GPS; miniature CubeSats for education and research; and military/defense satellites.

Loading next visibility...
Identifier
42831, 2017-042G
Orbit
SSO
Country
Flag of DEDE / GER
Related business
Manufacturer
IRS Stuttgart
Mission
Operational Amateur Technology
Bus & Motor
FLP, Unknown motor
Mass
120 kg wet, 120 kg dry
Launch date (UTC)
2017-07-14 (9 years ago)
Launch vehicle
SOYUZ-2-1A
Launch site
Tyuratam Missile And Space Complex (TTMTR)
Object type
Payload
Rocket body
Debris
Shape & HBR
Box + 2 Pan, 1.1 m
Radar Cross Section
0.788 m², Medium (>0.1 m² and < 1m²)

Expand to show TLE details & history
Last TLE update: 10 hours ago

TLE from 10 hours ago
0 FLYING LAPTOP
1 42831U 17042G   26199.84580237  .00002162  00000-0  17183-3 0  9990
2 42831  97.4827 354.1910 0019537  20.8806 339.3212 15.01328064491208
Epoch: 2026-07-18T20:17Z
TLE epoch observation values (Epoch: 2026-07-18T20:17:57.324Z)
Latitude
-0.00009°
Longitude
113.04946°
Altitude
553.177 km
Speed
7.592 km/s
True Right ascension
23h 36m 45s
True Declination
0° 00' 00"
Sunlit
Object was in full shadow at epoch
Visualization orbit readout
Latitude
Unknown
Longitude
Unknown
Altitude
Unknown
Speed
Unknown
Apparent Right ascension
Unknown
Apparent Declination
Unknown
Sunlit
N/A
Visualization observer readout
Local Sidereal Time
19:27:25
Azimuth
Unknown
Elevation
Unknown
Doppler factor
Unknown
Orbital elements
Apogee altitude
573.349 km
Perigee altitude
546.239 km
Semi-major axis
6,937.931 km
Eccentricity
0.00195
Inclination
97.4827°
RAAN
354.191°
Arg. of periapsis
20.8806°
True anomaly
339.24196°
Mean anomaly
339.3212°
Eccentric anomaly
339.2816°
Mean motion
3.75576 °/min
Orbital period
95.85 mins
BSTAR
0.00017183
Loading maneuver chart data...
Computing Atmospheric mass density...
Loading historical data...
Loading historical data...
Loading historical data...
Loading historical data...
Loading historical data...
Loading historical data...
Loading historical data...

Documentation

Showing up to 5 results
|